When you browse on this site, cookies collect data to enhance your experience and personalize the content and advertising you see.
Visit our Privacy Policy to learn more. By continuing to use the site, you agree to this use of cookies and data.
  • în România
  • Lista ţărilor
  • Pe 7 zile
  • Temperatura apei
  • Hartă satelitară
  • Meteo pe hartă
  • Widget-uri
  • user-avatar
    Intrare

    Meteo pe oră la Luzhkovo

    Astăzi, 21 Martie, Joi

    Timp Temperatura Precipitaţii Vânt Presiune Umiditate
    00:00 -3°C° 0 mm 2 m/s 743 mmHg 88%
    01:00 -4°C° 0 mm 3 m/s 742 mmHg 87%
    02:00 -4°C° 0 mm 3 m/s 742 mmHg 88%
    03:00 -4°C° 0.2 mm 3 m/s 741 mmHg 89%
    04:00 -2°C° 0.2 mm 3 m/s 741 mmHg 90%
    05:00 -2°C° 0.2 mm 3 m/s 741 mmHg 92%
    06:00 -2°C° 0.1 mm 3 m/s 741 mmHg 91%
    07:00 -1°C° 0.1 mm 3 m/s 741 mmHg 89%
    08:00 -1°C° 0.1 mm 3 m/s 741 mmHg 88%
    09:00 0°C° 0 mm 3 m/s 741 mmHg 86%
    10:00 +1°C° 0 mm 3 m/s 741 mmHg 83%
    11:00 +1°C° 0 mm 3 m/s 741 mmHg 81%
    12:00 +1°C° 0 mm 3 m/s 741 mmHg 80%
    13:00 +2°C° 0 mm 3 m/s 741 mmHg 78%
    14:00 +2°C° 0 mm 3 m/s 742 mmHg 77%
    15:00 +1°C° 0 mm 3 m/s 742 mmHg 80%
    16:00 +2°C° 0 mm 2 m/s 742 mmHg 83%
    17:00 +2°C° 0 mm 2 m/s 742 mmHg 86%
    18:00 +1°C° 0 mm 2 m/s 742 mmHg 88%
    19:00 -1°C° 0 mm 2 m/s 741 mmHg 91%
    20:00 -1°C° 0 mm 2 m/s 741 mmHg 93%
    21:00 -1°C° 0 mm 2 m/s 741 mmHg 93%
    22:00 -1°C° 0 mm 2 m/s 740 mmHg 93%
    23:00 -1°C° 0 mm 2 m/s 740 mmHg 93%

    Mâine, 22 Martie, Vineri

    Timp Temperatura Precipitaţii Vânt Presiune Umiditate
    00:00 -1°C° 0 mm 2 m/s 739 mmHg 92%
    01:00 0°C° 0 mm 3 m/s 738 mmHg 92%
    02:00 0°C° 0 mm 3 m/s 738 mmHg 91%
    03:00 0°C° 0.4 mm 3 m/s 736 mmHg 91%
    04:00 0°C° 0.4 mm 4 m/s 735 mmHg 91%
    05:00 0°C° 0.4 mm 4 m/s 734 mmHg 91%
    06:00 0°C° 1.3 mm 5 m/s 734 mmHg 88%
    07:00 -1°C° 1.3 mm 6 m/s 733 mmHg 86%
    08:00 0°C° 1.3 mm 7 m/s 733 mmHg 83%
    09:00 -1°C° 0.3 mm 7 m/s 733 mmHg 79%
    10:00 -2°C° 0.3 mm 8 m/s 734 mmHg 75%
    11:00 -2°C° 0.3 mm 8 m/s 735 mmHg 71%
    12:00 -2°C° 0 mm 8 m/s 736 mmHg 70%
    13:00 -2°C° 0 mm 7 m/s 736 mmHg 69%
    14:00 -2°C° 0 mm 7 m/s 737 mmHg 68%
    15:00 -3°C° 0.1 mm 7 m/s 737 mmHg 70%
    16:00 -3°C° 0.1 mm 6 m/s 738 mmHg 73%
    17:00 -3°C° 0.1 mm 6 m/s 738 mmHg 75%
    18:00 -3°C° 0.1 mm 6 m/s 738 mmHg 77%
    19:00 -3°C° 0.1 mm 6 m/s 739 mmHg 79%
    20:00 -3°C° 0.1 mm 6 m/s 739 mmHg 81%
    21:00 -3°C° 0 mm 6 m/s 740 mmHg 82%
    22:00 -2°C° 0 mm 5 m/s 740 mmHg 83%
    23:00 -2°C° 0 mm 5 m/s 741 mmHg 84%

    Poimâine, 23 Martie, Sâmbătă

    Timp Temperatura Precipitaţii Vânt Presiune Umiditate
    00:00 -2°C° 0.1 mm 5 m/s 741 mmHg 84%
    01:00 -2°C° 0.1 mm 5 m/s 742 mmHg 85%
    02:00 -2°C° 0.1 mm 4 m/s 742 mmHg 86%
    03:00 -2°C° 0 mm 4 m/s 743 mmHg 87%
    04:00 -2°C° 0 mm 4 m/s 743 mmHg 87%
    05:00 -1°C° 0 mm 3 m/s 744 mmHg 88%
    06:00 -1°C° 0 mm 3 m/s 744 mmHg 88%
    07:00 -1°C° 0 mm 3 m/s 745 mmHg 87%
    08:00 -1°C° 0 mm 3 m/s 745 mmHg 87%
    09:00 +1°C° 0 mm 2 m/s 745 mmHg 84%
    10:00 +2°C° 0 mm 2 m/s 745 mmHg 81%
    11:00 +3°C° 0 mm 1 m/s 745 mmHg 78%
    12:00 +4°C° 0 mm 1 m/s 745 mmHg 77%
    13:00 +4°C° 0 mm 1 m/s 745 mmHg 76%
    14:00 +4°C° 0 mm 1 m/s 744 mmHg 76%
    15:00 +4°C° 0 mm 1 m/s 744 mmHg 79%
    16:00 +3°C° 0 mm 1 m/s 744 mmHg 82%
    17:00 +3°C° 0 mm 1 m/s 743 mmHg 85%
    18:00 +1°C° 0 mm 2 m/s 743 mmHg 86%
    19:00 +1°C° 0 mm 2 m/s 743 mmHg 87%
    20:00 -1°C° 0 mm 3 m/s 742 mmHg 89%
    21:00 -1°C° 0 mm 3 m/s 742 mmHg 88%
    22:00 -1°C° 0 mm 3 m/s 741 mmHg 87%
    23:00 0°C° 0 mm 3 m/s 740 mmHg 86%

    24 Martie, Duminică

    Timp Temperatura Precipitaţii Vânt Presiune Umiditate
    00:00 -1°C° 0.5 mm 4 m/s 740 mmHg 87%
    01:00 -1°C° 0.5 mm 4 m/s 739 mmHg 88%
    02:00 -1°C° 0.5 mm 4 m/s 739 mmHg 89%
    03:00 0°C° 0.4 mm 3 m/s 738 mmHg 90%
    04:00 0°C° 0.4 mm 3 m/s 738 mmHg 91%
    05:00 0°C° 0.4 mm 3 m/s 738 mmHg 93%
    06:00 0°C° 0 mm 3 m/s 738 mmHg 90%
    07:00 0°C° 0 mm 3 m/s 738 mmHg 88%
    08:00 0°C° 0 mm 4 m/s 738 mmHg 86%
    09:00 +1°C° 0 mm 4 m/s 738 mmHg 79%
    10:00 +1°C° 0 mm 4 m/s 738 mmHg 72%
    11:00 +3°C° 0 mm 4 m/s 738 mmHg 64%
    12:00 +2°C° 0.2 mm 5 m/s 738 mmHg 65%
    13:00 +1°C° 0.2 mm 5 m/s 738 mmHg 66%
    14:00 +1°C° 0.2 mm 5 m/s 738 mmHg 67%
    15:00 0°C° 0.1 mm 5 m/s 738 mmHg 69%
    16:00 0°C° 0.1 mm 4 m/s 738 mmHg 72%
    17:00 -1°C° 0.1 mm 4 m/s 738 mmHg 74%
    18:00 -1°C° 0 mm 3 m/s 739 mmHg 76%
    19:00 -2°C° 0 mm 3 m/s 739 mmHg 78%
    20:00 -4°C° 0 mm 3 m/s 739 mmHg 80%
    21:00 -4°C° 0 mm 3 m/s 739 mmHg 81%
    22:00 -5°C° 0 mm 3 m/s 739 mmHg 81%
    23:00 -5°C° 0 mm 3 m/s 739 mmHg 82%

    25 Martie, Luni

    Timp Temperatura Precipitaţii Vânt Presiune Umiditate
    00:00 -5°C° 0 mm 3 m/s 739 mmHg 83%
    01:00 -6°C° 0 mm 3 m/s 739 mmHg 84%
    02:00 -6°C° 0 mm 3 m/s 739 mmHg 85%
    03:00 -6°C° 0 mm 3 m/s 739 mmHg 86%
    04:00 -6°C° 0 mm 3 m/s 739 mmHg 87%
    05:00 -6°C° 0 mm 2 m/s 739 mmHg 89%
    06:00 -5°C° 0 mm 2 m/s 739 mmHg 85%
    07:00 -4°C° 0 mm 2 m/s 739 mmHg 82%
    08:00 -3°C° 0 mm 2 m/s 738 mmHg 78%
    09:00 -2°C° 0 mm 2 m/s 738 mmHg 71%
    10:00 -1°C° 0 mm 2 m/s 738 mmHg 64%
    11:00 +1°C° 0 mm 2 m/s 738 mmHg 57%
    12:00 +2°C° 0 mm 2 m/s 738 mmHg 56%
    13:00 +2°C° 0 mm 2 m/s 737 mmHg 54%
    14:00 +3°C° 0 mm 2 m/s 737 mmHg 52%
    15:00 +3°C° 0 mm 1 m/s 737 mmHg 57%
    16:00 +3°C° 0 mm 1 m/s 736 mmHg 62%
    17:00 +2°C° 0 mm 1 m/s 736 mmHg 66%
    18:00 +1°C° 0 mm 1 m/s 736 mmHg 70%
    19:00 0°C° 0 mm 1 m/s 736 mmHg 73%
    20:00 -3°C° 0 mm 2 m/s 735 mmHg 76%
    21:00 -3°C° 0 mm 2 m/s 735 mmHg 76%
    22:00 -3°C° 0 mm 2 m/s 735 mmHg 76%
    23:00 -3°C° 0 mm 2 m/s 735 mmHg 76%

    26 Martie, Marţi

    Timp Temperatura Precipitaţii Vânt Presiune Umiditate
    00:00 -3°C° 0 mm 2 m/s 734 mmHg 75%
    01:00 -3°C° 0 mm 2 m/s 734 mmHg 74%
    02:00 -3°C° 0 mm 2 m/s 734 mmHg 73%
    03:00 -3°C° 0 mm 2 m/s 734 mmHg 74%
    04:00 -4°C° 0 mm 3 m/s 734 mmHg 74%
    05:00 -4°C° 0 mm 3 m/s 734 mmHg 75%
    06:00 -4°C° 0 mm 3 m/s 734 mmHg 72%
    07:00 -2°C° 0 mm 3 m/s 734 mmHg 70%
    08:00 -1°C° 0 mm 3 m/s 734 mmHg 68%
    09:00 -1°C° 0 mm 4 m/s 734 mmHg 64%
    10:00 0°C° 0 mm 4 m/s 734 mmHg 60%
    11:00 +1°C° 0 mm 4 m/s 734 mmHg 56%
    12:00 +1°C° 0 mm 4 m/s 734 mmHg 54%
    13:00 +1°C° 0 mm 4 m/s 734 mmHg 53%
    14:00 +1°C° 0 mm 4 m/s 734 mmHg 51%
    15:00 +1°C° 0.1 mm 4 m/s 734 mmHg 57%
    16:00 +1°C° 0.1 mm 3 m/s 734 mmHg 62%
    17:00 0°C° 0.1 mm 3 m/s 735 mmHg 68%
    18:00 -1°C° 0.1 mm 3 m/s 735 mmHg 72%
    19:00 -1°C° 0.1 mm 3 m/s 735 mmHg 77%
    20:00 -2°C° 0.1 mm 3 m/s 736 mmHg 82%
    21:00 -2°C° 0.3 mm 3 m/s 736 mmHg 85%
    22:00 -2°C° 0.3 mm 3 m/s 736 mmHg 88%
    23:00 -2°C° 0.3 mm 2 m/s 736 mmHg 91%
    Arată mai mult